Resia Pass, Italy

10:23 AM CET on January 20, 2018 (GMT +0100)
Resia Pass

Weather History for LIVE - January, 2013

Change the Weather History Date:

Monday, January 14, 2013

  Actual Average Record
Temperature  
Mean Temperature 28 °F -  
Max Temperature 32 °F 34 °F 55 °F (2007)
Min Temperature 24 °F 17 °F 6 °F (2000)
Degree Days  
Heating Degree Days 37    
Moisture  
Dew Point 18 °F    
Average Humidity 71    
Maximum Humidity 80    
Minimum Humidity 41    
Precipitation  
Precipitation 0.00 in - - ()
Sea Level Pressure  
Sea Level Pressure 29.63 in    
Wind  
Wind Speed 5 mph ()    
Max Wind Speed 8 mph    
Max Gust Speed 18 mph    
Visibility 6.2 miles    
Events      
Averages and records for this station are not official NWS values.
T = Trace of Precipitation, MM = Missing Value Source: Averaged Metar Reports

Daily Weather History Graph

Daily Weather History Graph

Search for Another Location

Airport or City:

Trip Planner

Search our weather history database for the weather conditions in past years. The results will help you decide how hot, cold, wet, or windy it might be!

Date:

Astronomy

Jan. 14, 2013 Rise Set
Actual Time 7:59 AM CET 4:55 PM CET
Civil Twilight 7:25 AM CET 5:29 PM CET
Nautical Twilight 6:47 AM CET 6:07 PM CET
Astronomical Twilight 6:11 AM CET 6:43 PM CET
Moon 9:09 AM CET (1/14) 8:38 PM CET (1/14)
Length of Visible Light 10h 04m
Length of Day
8h 55m
Waxing Crescent, 9% of the Moon is Illuminated
Jan 14
Waxing Crescent
Jan 19
First Quarter
Jan 27
Full
Feb 3
Last Quarter
Feb 10
New

Hourly Weather History & Observations

Time (CET) Temp. Windchill Dew Point Humidity Pressure Visibility Wind Dir Wind Speed Gust Speed Precip Events Conditions
12:55 AM 26.6 °F 20.0 °F 17.6 °F 69% 29.68 in 6.2 mi North 5.8 mph - N/A   Mostly Cloudy
1:55 AM 26.6 °F 20.0 °F 17.6 °F 69% 29.65 in 6.2 mi NNE 5.8 mph - N/A   Mostly Cloudy
3:55 AM 24.8 °F 17.9 °F 19.4 °F 80% 29.62 in 6.2 mi NE 5.8 mph - N/A   Mostly Cloudy
4:55 AM 26.6 °F 18.2 °F 21.2 °F 80% 29.62 in 6.2 mi NE 8.1 mph - N/A   Mostly Cloudy
5:55 AM 26.6 °F 19.1 °F 21.2 °F 80% 29.62 in 6.2 mi ENE 6.9 mph - N/A   Mostly Cloudy
6:55 AM 24.8 °F 16.9 °F 19.4 °F 80% 29.62 in 6.2 mi NE 6.9 mph - N/A   Partly Cloudy
7:55 AM 24.8 °F 16.9 °F 19.4 °F 80% 29.62 in 6.2 mi NE 6.9 mph - N/A   Scattered Clouds
8:55 AM 24.8 °F 19.1 °F 19.4 °F 80% 29.59 in 6.2 mi NNE 4.6 mph - N/A   Scattered Clouds
9:55 AM 24.8 °F 17.9 °F 19.4 °F 80% 29.59 in 6.2 mi NNE 5.8 mph - N/A   Scattered Clouds
10:55 AM 24.8 °F 17.9 °F 19.4 °F 80% 29.59 in 6.2 mi NNE 5.8 mph - N/A   Scattered Clouds
11:55 AM 28.4 °F 21.2 °F 19.4 °F 69% 29.62 in - NNE 6.9 mph - N/A   Clear
12:55 PM 30.2 °F 23.4 °F 19.4 °F 64% 29.62 in - NNE 6.9 mph - N/A   Clear
1:55 PM 32.0 °F 26.4 °F 10.4 °F 41% 29.62 in - North 5.8 mph - N/A   Clear
2:55 PM 30.2 °F 24.3 °F 15.8 °F 55% 29.62 in - NNE 5.8 mph - N/A   Clear
3:55 PM 30.2 °F 24.3 °F 17.6 °F 60% 29.62 in 6.2 mi NNE 5.8 mph - N/A   Mostly Cloudy
4:55 PM 28.4 °F 22.2 °F 14.0 °F 55% 29.62 in 6.2 mi NE 5.8 mph - N/A   Mostly Cloudy
5:55 PM 28.4 °F 22.2 °F 15.8 °F 59% 29.62 in 6.2 mi NE 5.8 mph - N/A   Mostly Cloudy
6:55 PM 26.6 °F 20.0 °F 17.6 °F 69% 29.62 in 6.2 mi NE 5.8 mph 18.4 mph N/A   Mostly Cloudy
7:55 PM 26.6 °F - 19.4 °F 74% 29.65 in 6.2 mi North 2.3 mph - N/A   Mostly Cloudy
8:55 PM 26.6 °F 21.2 °F 19.4 °F 74% 29.65 in 6.2 mi North 4.6 mph - N/A   Scattered Clouds
10:55 PM 24.8 °F 20.5 °F 19.4 °F 80% 29.65 in 6.2 mi North 3.5 mph - N/A   Mostly Cloudy
11:55 PM 24.8 °F 20.5 °F 19.4 °F 80% 29.65 in - North 3.5 mph - N/A   Clear